Find Starlink 30547

NORAD ID: 58044 Int'l Des: 2023-156 Owner: SPXS Country: US Constellation: starlink operational
LEOCIRCULAR

リアルタイム位置

3D地球を読み込み中...

Starlink 30547について

説明を読み込み中...

次回通過

Passes for default location (London). Set your location on the main map for personalized predictions.

高度履歴

Loading altitude history...

軌道要素

1 58044U 23156S 26126.37454525 -.00000951 00000-0 -20017-4 0 9991
2 58044 53.1611 260.2649 0000909 83.7303 276.3801 15.30178524143866
Epoch: May 6, 2026 • Age: 19 hours

現在のステータス

高度 475.2 km
速度 7.63 km/s
衛星直下点 13.15°N, 16.45°W
打ち上げ日 Oct 9, 2023
運用期間 2.5 years
タイプ internet

技術仕様

分類 Payload
質量 730.00 kg
乾燥質量 700.00 kg
総質量 730.00 kg
長さ 0.30 m
直径 4.10 m
スパン 29.00 m
形状 Box + pan
製造者 SPXS
バスタイプ Starlink V2M
フェーズステータス In Orbit
所有者/国 SPXS/US

Most Searched